status,avgMeasuredTime,avgSpeed,extID,medianMeasuredTime,TIMESTAMP,vehicleCount,_id,REPORT_ID
OK,66,20,644,66,2014-08-01T07:50:00,13,20746196,201453
OK,86,15,644,86,2014-08-01T07:55:00,13,20746368,201453
OK,61,22,644,61,2014-08-01T08:00:00,8,20746699,201453
OK,55,24,644,55,2014-08-01T08:05:00,6,20747148,201453
OK,56,24,644,56,2014-08-01T08:10:00,9,20747521,201453
OK,45,30,644,45,2014-08-01T08:15:00,10,20747970,201453
OK,52,26,644,52,2014-08-01T08:20:00,7,20748419,201453
OK,60,22,644,60,2014-08-01T08:25:00,11,20748868,201453
OK,55,24,644,55,2014-08-01T08:30:00,11,20749317,201453
OK,42,32,644,42,2014-08-01T08:35:00,14,20749766,201453
OK,43,31,644,43,2014-08-01T08:40:00,13,20750215,201453
OK,62,22,644,62,2014-08-01T08:45:00,5,20750664,201453
OK,53,25,644,53,2014-08-01T08:50:00,4,20751113,201453
OK,53,25,644,53,2014-08-01T08:55:00,8,20751562,201453
OK,39,35,644,39,2014-08-01T09:00:00,8,20752011,201453
OK,32,42,644,32,2014-08-01T09:05:00,4,20752460,201453
OK,30,45,644,30,2014-08-01T09:10:00,3,20752909,201453
OK,41,33,644,41,2014-08-01T09:15:00,9,20753358,201453
OK,59,23,644,59,2014-08-01T09:20:00,13,20753807,201453
OK,59,23,644,59,2014-08-01T09:25:00,14,20754256,201453
OK,50,27,644,50,2014-08-01T09:30:00,10,20754705,201453
OK,40,34,644,40,2014-08-01T09:35:00,3,20755154,201453
OK,55,24,644,55,2014-08-01T09:40:00,4,20755603,201453
OK,51,26,644,51,2014-08-01T09:45:00,10,20756052,201453
OK,47,29,644,47,2014-08-01T09:50:00,10,20756501,201453
OK,39,35,644,39,2014-08-01T09:55:00,9,20756950,201453
OK,50,27,644,50,2014-08-01T10:00:00,6,20757399,201453
OK,49,27,644,49,2014-08-01T10:05:00,7,20757848,201453
OK,46,29,644,46,2014-08-01T10:10:00,9,20758297,201453
OK,44,31,644,44,2014-08-01T10:15:00,9,20758746,201453
OK,52,26,644,52,2014-08-01T10:20:00,6,20759195,201453
OK,58,23,644,58,2014-08-01T10:25:00,7,20759644,201453
OK,55,24,644,55,2014-08-01T10:30:00,11,20760093,201453
OK,56,24,644,56,2014-08-01T10:35:00,8,20760542,201453
OK,56,24,644,56,2014-08-01T10:40:00,8,20760991,201453
OK,55,24,644,55,2014-08-01T10:45:00,11,20761440,201453
OK,47,29,644,47,2014-08-01T10:50:00,8,20761889,201453
OK,49,27,644,49,2014-08-01T10:55:00,8,20762338,201453
OK,52,26,644,52,2014-08-01T11:00:00,10,20762787,201453
OK,35,39,644,35,2014-08-01T11:05:00,6,20763236,201453
OK,24,57,644,24,2014-08-01T11:10:00,3,20763685,201453
OK,48,28,644,48,2014-08-01T11:15:00,8,20764134,201453
OK,51,26,644,51,2014-08-01T11:20:00,11,20764582,201453
OK,51,26,644,51,2014-08-01T11:25:00,9,20765031,201453
OK,47,29,644,47,2014-08-01T11:30:00,7,20765480,201453
OK,50,27,644,50,2014-08-01T11:35:00,6,20765929,201453
OK,56,24,644,56,2014-08-01T11:40:00,9,20766378,201453
OK,52,26,644,52,2014-08-01T11:45:00,8,20766827,201453
OK,42,32,644,42,2014-08-01T11:50:00,6,20767276,201453
OK,56,24,644,56,2014-08-01T11:55:00,12,20767725,201453
OK,56,24,644,56,2014-08-01T12:00:00,12,20768174,201453
OK,28,48,644,28,2014-08-01T12:05:00,3,20768623,201453
OK,30,45,644,30,2014-08-01T12:10:00,6,20769072,201453
OK,33,41,644,33,2014-08-01T12:15:00,5,20769521,201453
OK,30,45,644,30,2014-08-01T12:20:00,6,20769970,201453
OK,32,42,644,32,2014-08-01T12:25:00,8,20770419,201453
OK,34,40,644,34,2014-08-01T12:30:00,7,20770868,201453
OK,34,40,644,34,2014-08-01T12:35:00,7,20771317,201453
OK,34,40,644,34,2014-08-01T12:40:00,2,20771766,201453
OK,26,52,644,26,2014-08-01T12:45:00,4,20772215,201453
OK,26,52,644,26,2014-08-01T12:50:00,4,20772664,201453
OK,36,38,644,36,2014-08-01T12:55:00,4,20773113,201453
OK,36,38,644,36,2014-08-01T13:00:00,2,20773562,201453
OK,29,47,644,29,2014-08-01T13:05:00,2,20774011,201453
OK,32,42,644,32,2014-08-01T13:10:00,3,20774460,201453
OK,33,41,644,33,2014-08-01T13:15:00,10,20774909,201453
OK,33,41,644,33,2014-08-01T13:20:00,13,20775358,201453
OK,35,39,644,35,2014-08-01T13:25:00,10,20775807,201453
OK,31,44,644,31,2014-08-01T13:30:00,7,20776256,201453
OK,40,34,644,40,2014-08-01T13:35:00,4,20776705,201453
OK,44,31,644,44,2014-08-01T13:40:00,2,20777154,201453
OK,47,29,644,47,2014-08-01T13:45:00,1,20777603,201453
OK,28,48,644,28,2014-08-01T13:50:00,6,20778052,201453
OK,28,48,644,28,2014-08-01T13:55:00,7,20778501,201453
OK,21,65,644,21,2014-08-01T14:00:00,4,20778950,201453
OK,37,37,644,37,2014-08-01T14:05:00,2,20779399,201453
OK,27,50,644,27,2014-08-01T14:10:00,9,20779848,201453
OK,27,50,644,27,2014-08-01T14:15:00,7,20780297,201453
OK,30,45,644,30,2014-08-01T14:20:00,6,20780746,201453
OK,30,45,644,30,2014-08-01T14:25:00,10,20781195,201453
OK,33,41,644,33,2014-08-01T14:30:00,13,20781644,201453
OK,34,40,644,34,2014-08-01T14:35:00,9,20782093,201453
OK,30,45,644,30,2014-08-01T14:40:00,5,20782542,201453
OK,28,48,644,28,2014-08-01T14:45:00,7,20782991,201453
OK,41,33,644,41,2014-08-01T14:50:00,5,20783440,201453
OK,41,33,644,41,2014-08-01T14:55:00,12,20783889,201453
OK,36,38,644,36,2014-08-01T15:00:00,13,20784338,201453
OK,35,39,644,35,2014-08-01T15:05:00,3,20784787,201453
OK,49,27,644,49,2014-08-01T15:10:00,5,20785236,201453
OK,39,35,644,39,2014-08-01T15:15:00,10,20785685,201453
OK,41,33,644,41,2014-08-01T15:20:00,9,20786134,201453
OK,45,30,644,45,2014-08-01T15:25:00,8,20786583,201453
OK,42,32,644,42,2014-08-01T15:30:00,7,20787032,201453
OK,30,45,644,30,2014-08-01T15:35:00,3,20787481,201453
OK,61,22,644,61,2014-08-01T15:40:00,3,20787930,201453
OK,53,25,644,53,2014-08-01T15:45:00,8,20788379,201453
OK,58,23,644,58,2014-08-01T15:50:00,4,20788828,201453
OK,42,32,644,42,2014-08-01T15:55:00,3,20789277,201453
OK,50,27,644,50,2014-08-01T16:00:00,3,20789726,201453
OK,49,27,644,49,2014-08-01T16:05:00,4,20790175,201453
OK,58,23,644,58,2014-08-01T16:10:00,4,20790624,201453
OK,56,24,644,56,2014-08-01T16:15:00,5,20791073,201453
OK,32,42,644,32,2014-08-01T16:20:00,2,20791522,201453
OK,34,40,644,34,2014-08-01T16:25:00,3,20791971,201453
OK,44,31,644,44,2014-08-01T16:30:00,2,20792420,201453
OK,55,24,644,55,2014-08-01T16:35:00,0,20792869,201453
OK,74,18,644,74,2014-08-01T16:40:00,3,20793318,201453
OK,55,24,644,55,2014-08-01T16:45:00,6,20793767,201453
OK,51,26,644,51,2014-08-01T16:50:00,6,20794216,201453
OK,47,29,644,47,2014-08-01T16:55:00,4,20794665,201453
OK,50,27,644,50,2014-08-01T17:00:00,5,20795114,201453
OK,53,25,644,53,2014-08-01T17:05:00,6,20795563,201453
OK,51,26,644,51,2014-08-01T17:10:00,1,20796012,201453
OK,49,27,644,49,2014-08-01T17:15:00,1,20796461,201453
OK,55,24,644,55,2014-08-01T17:20:00,4,20796910,201453
OK,55,24,644,55,2014-08-01T17:25:00,5,20797359,201453
OK,40,34,644,40,2014-08-01T17:30:00,1,20797808,201453
OK,33,41,644,33,2014-08-01T17:35:00,1,20798257,201453
OK,55,24,644,55,2014-08-01T17:40:00,1,20798706,201453
OK,44,31,644,44,2014-08-01T17:45:00,6,20799155,201453
OK,29,47,644,29,2014-08-01T17:50:00,3,20799604,201453
OK,54,25,644,54,2014-08-01T17:55:00,2,20800053,201453
OK,36,38,644,36,2014-08-01T18:00:00,3,20800502,201453
OK,48,28,644,48,2014-08-01T18:05:00,2,20800951,201453
OK,48,28,644,48,2014-08-01T18:10:00,4,20801400,201453
OK,45,30,644,45,2014-08-01T18:15:00,5,20801849,201453
OK,56,24,644,56,2014-08-01T18:20:00,1,20802298,201453
OK,28,48,644,28,2014-08-01T18:25:00,3,20802747,201453
OK,33,41,644,33,2014-08-01T18:30:00,5,20803196,201453
OK,36,38,644,36,2014-08-01T18:35:00,8,20803645,201453
OK,42,32,644,42,2014-08-01T18:40:00,5,20804094,201453
OK,40,34,644,40,2014-08-01T18:45:00,2,20804543,201453
OK,58,23,644,58,2014-08-01T18:50:00,3,20804992,201453
OK,58,23,644,58,2014-08-01T18:55:00,1,20805441,201453
OK,47,29,644,47,2014-08-01T19:00:00,4,20805890,201453
OK,48,28,644,48,2014-08-01T19:05:00,3,20806339,201453
OK,44,31,644,44,2014-08-01T19:10:00,1,20806788,201453
OK,45,30,644,45,2014-08-01T19:15:00,5,20807237,201453
OK,40,34,644,40,2014-08-01T19:20:00,3,20807686,201453
OK,22,62,644,22,2014-08-01T19:25:00,0,20808135,201453
OK,22,62,644,22,2014-08-01T19:30:00,0,20808584,201453
OK,47,29,644,47,2014-08-01T19:35:00,2,20809033,201453
OK,86,15,644,86,2014-08-01T19:40:00,1,20809482,201453
OK,42,32,644,42,2014-08-01T19:45:00,2,20809931,201453
OK,32,42,644,32,2014-08-01T19:50:00,6,20810380,201453
OK,32,42,644,32,2014-08-01T19:55:00,4,20810829,201453
OK,35,39,644,35,2014-08-01T20:00:00,2,20811277,201453
OK,28,48,644,28,2014-08-01T20:05:00,0,20811449,201453
OK,47,29,644,47,2014-08-01T20:10:00,1,20811651,201453
OK,43,31,644,43,2014-08-01T20:15:00,4,20811858,201453
OK,41,33,644,41,2014-08-01T20:20:00,7,20812066,201453
OK,34,40,644,34,2014-08-01T20:25:00,5,20812286,201453
OK,39,35,644,39,2014-08-01T20:30:00,2,20812499,201453
OK,28,48,644,28,2014-08-01T20:35:00,4,20812709,201453
OK,30,45,644,30,2014-08-01T20:40:00,5,20812910,201453
OK,30,45,644,30,2014-08-01T20:45:00,5,20813117,201453
OK,52,26,644,52,2014-08-01T20:50:00,1,20813328,201453
OK,31,44,644,31,2014-08-01T20:55:00,1,20813558,201453
OK,34,40,644,34,2014-08-01T21:00:00,5,20813796,201453
OK,45,30,644,45,2014-08-01T21:05:00,3,20813973,201453
OK,67,20,644,67,2014-08-01T21:10:00,2,20814213,201453
OK,45,30,644,45,2014-08-01T21:15:00,2,20814409,201453
OK,32,42,644,32,2014-08-01T21:20:00,1,20814615,201453
OK,33,41,644,33,2014-08-01T21:25:00,3,20814845,201453
OK,33,41,644,33,2014-08-01T21:30:00,3,20815120,201453
OK,29,47,644,29,2014-08-01T21:35:00,1,20815354,201453
OK,36,38,644,36,2014-08-01T21:40:00,2,20815577,201453
OK,47,29,644,47,2014-08-01T21:45:00,4,20815814,201453
OK,50,27,644,50,2014-08-01T21:50:00,3,20816055,201453
OK,20,68,644,20,2014-08-01T21:55:00,1,20816290,201453
OK,20,68,644,20,2014-08-01T22:00:00,0,20816558,201453
OK,20,68,644,20,2014-08-01T22:05:00,0,20817007,201453
OK,49,27,644,49,2014-08-01T22:10:00,1,20817329,201453
OK,20,68,644,20,2014-08-01T22:15:00,1,20817758,201453
OK,23,59,644,23,2014-08-01T22:20:00,1,20818048,201453
OK,37,37,644,37,2014-08-01T22:25:00,2,20818364,201453
OK,56,24,644,56,2014-08-01T22:30:00,1,20818698,201453
OK,56,24,644,56,2014-08-01T22:35:00,0,20819003,201453
OK,25,54,644,25,2014-08-01T22:40:00,1,20819182,201453
OK,25,54,644,25,2014-08-01T22:45:00,1,20819470,201453
OK,41,33,644,41,2014-08-01T22:50:00,1,20819705,201453
OK,41,33,644,41,2014-08-01T22:55:00,0,20819958,201453
OK,36,38,644,36,2014-08-01T23:00:00,2,20820134,201453
OK,38,36,644,38,2014-08-01T23:05:00,2,20820387,201453
OK,28,48,644,28,2014-08-01T23:10:00,0,20820617,201453
OK,28,48,644,28,2014-08-01T23:15:00,0,20820805,201453
OK,29,47,644,29,2014-08-01T23:20:00,1,20821058,201453
OK,29,47,644,29,2014-08-01T23:25:00,1,20821234,201453
OK,29,47,644,29,2014-08-01T23:30:00,0,20821459,201453
OK,29,47,644,29,2014-08-01T23:35:00,0,20821704,201453
OK,23,59,644,23,2014-08-01T23:40:00,1,20821883,201453
OK,23,59,644,23,2014-08-01T23:45:00,0,20822106,201453
OK,23,59,644,23,2014-08-01T23:50:00,0,20822373,201453
OK,23,59,644,23,2014-08-01T23:55:00,0,20822699,201453
OK,23,59,644,23,2014-08-02T00:00:00,0,20822997,201453
OK,23,59,644,23,2014-08-02T00:05:00,0,20823446,201453
OK,34,40,644,34,2014-08-02T00:10:00,1,20823895,201453
OK,50,27,644,50,2014-08-02T00:15:00,1,20824344,201453
OK,50,27,644,50,2014-08-02T00:20:00,0,20824793,201453
OK,46,29,644,46,2014-08-02T00:25:00,2,20825242,201453
OK,43,31,644,43,2014-08-02T00:30:00,3,20825691,201453
OK,41,33,644,41,2014-08-02T00:35:00,0,20826140,201453
OK,41,33,644,41,2014-08-02T00:40:00,0,20826589,201453
OK,41,33,644,41,2014-08-02T00:45:00,0,20827038,201453
OK,41,33,644,41,2014-08-02T00:50:00,0,20827487,201453
OK,41,33,644,41,2014-08-02T00:55:00,0,20827936,201453
OK,41,33,644,41,2014-08-02T01:00:00,0,20828385,201453
OK,41,33,644,41,2014-08-02T01:05:00,0,20828834,201453
OK,41,33,644,41,2014-08-02T01:10:00,0,20829283,201453
OK,41,33,644,41,2014-08-02T01:15:00,0,20829732,201453
OK,41,33,644,41,2014-08-02T01:20:00,0,20830181,201453
OK,41,33,644,41,2014-08-02T01:25:00,0,20830630,201453
OK,41,33,644,41,2014-08-02T01:30:00,0,20831079,201453
OK,41,33,644,41,2014-08-02T01:35:00,0,20831528,201453
OK,41,33,644,41,2014-08-02T01:40:00,0,20831977,201453
OK,41,33,644,41,2014-08-02T01:45:00,0,20832426,201453
OK,41,33,644,41,2014-08-02T01:50:00,0,20832875,201453
OK,41,33,644,41,2014-08-02T01:55:00,0,20833324,201453
OK,41,33,644,41,2014-08-02T02:00:00,0,20833773,201453
OK,34,40,644,34,2014-08-02T02:05:00,1,20834222,201453
OK,34,40,644,34,2014-08-02T02:10:00,0,20834671,201453
OK,27,50,644,27,2014-08-02T02:15:00,1,20835120,201453
OK,27,50,644,27,2014-08-02T02:20:00,0,20835569,201453
OK,27,50,644,27,2014-08-02T02:25:00,0,20836018,201453
OK,27,50,644,27,2014-08-02T02:30:00,0,20836467,201453
OK,43,31,644,43,2014-08-02T02:35:00,1,20836916,201453
OK,43,31,644,43,2014-08-02T02:40:00,0,20837365,201453
OK,43,31,644,43,2014-08-02T02:45:00,0,20837814,201453
OK,21,65,644,21,2014-08-02T02:50:00,2,20838263,201453
OK,21,65,644,21,2014-08-02T02:55:00,0,20838712,201453
OK,21,65,644,21,2014-08-02T03:00:00,0,20839161,201453
OK,21,65,644,21,2014-08-02T03:05:00,0,20839610,201453
OK,21,65,644,21,2014-08-02T03:10:00,0,20840059,201453
OK,21,65,644,21,2014-08-02T03:15:00,0,20840508,201453
OK,21,65,644,21,2014-08-02T03:20:00,0,20840957,201453
OK,41,33,644,41,2014-08-02T03:25:00,1,20841406,201453
OK,41,33,644,41,2014-08-02T03:30:00,1,20841855,201453
OK,41,33,644,41,2014-08-02T03:35:00,0,20842304,201453
OK,41,33,644,41,2014-08-02T03:40:00,0,20842753,201453
OK,25,54,644,25,2014-08-02T03:45:00,2,20843202,201453
OK,25,54,644,25,2014-08-02T03:50:00,0,20843651,201453
OK,25,54,644,25,2014-08-02T03:55:00,0,20844100,201453
OK,25,54,644,25,2014-08-02T04:00:00,0,20844549,201453
OK,25,54,644,25,2014-08-02T04:05:00,0,20844680,201453
OK,25,54,644,25,2014-08-02T04:10:00,0,20845010,201453
OK,25,54,644,25,2014-08-02T04:15:00,0,20845190,201453
OK,22,62,644,22,2014-08-02T04:20:00,1,20845546,201453
OK,22,62,644,22,2014-08-02T04:25:00,0,20845914,201453
OK,22,62,644,22,2014-08-02T04:30:00,0,20846102,201453
OK,23,59,644,23,2014-08-02T04:35:00,1,20846469,201453
OK,28,48,644,28,2014-08-02T04:40:00,1,20846852,201453
OK,28,48,644,28,2014-08-02T04:45:00,1,20847111,201453
OK,28,48,644,28,2014-08-02T04:50:00,0,20847477,201453
OK,34,40,644,34,2014-08-02T04:55:00,1,20847834,201453
OK,30,45,644,30,2014-08-02T05:00:00,2,20848194,201453
OK,26,52,644,26,2014-08-02T05:05:00,1,20848359,201453
OK,35,39,644,35,2014-08-02T05:10:00,1,20848712,201453
OK,37,37,644,37,2014-08-02T05:15:00,2,20848904,201453
OK,37,37,644,37,2014-08-02T05:20:00,0,20849248,201453
OK,37,37,644,37,2014-08-02T05:25:00,0,20849566,201453
OK,37,37,644,37,2014-08-02T05:30:00,0,20849773,201453
OK,35,39,644,35,2014-08-02T05:35:00,3,20850045,201453
OK,31,44,644,31,2014-08-02T05:40:00,4,20850338,201453
OK,23,59,644,23,2014-08-02T05:45:00,2,20850639,201453
OK,23,59,644,23,2014-08-02T05:50:00,0,20850997,201453
OK,42,32,644,42,2014-08-02T05:55:00,1,20851251,201453
OK,32,42,644,32,2014-08-02T06:00:00,2,20851554,201453
OK,29,47,644,29,2014-08-02T06:05:00,1,20852003,201453
OK,29,47,644,29,2014-08-02T06:10:00,0,20852452,201453
OK,29,47,644,29,2014-08-02T06:15:00,0,20852901,201453
OK,29,47,644,29,2014-08-02T06:20:00,0,20853350,201453
OK,45,30,644,45,2014-08-02T06:25:00,2,20853799,201453
OK,42,32,644,42,2014-08-02T06:30:00,4,20854248,201453
OK,49,27,644,49,2014-08-02T06:35:00,3,20854697,201453
OK,51,26,644,51,2014-08-02T06:40:00,1,20855146,201453
OK,51,26,644,51,2014-08-02T06:45:00,1,20855595,201453
OK,51,26,644,51,2014-08-02T06:50:00,0,20856044,201453
OK,42,32,644,42,2014-08-02T06:55:00,5,20856493,201453
OK,42,32,644,42,2014-08-02T07:00:00,5,20856942,201453
OK,31,44,644,31,2014-08-02T07:05:00,2,20857391,201453
OK,47,29,644,47,2014-08-02T07:10:00,6,20857840,201453
OK,33,41,644,33,2014-08-02T07:15:00,5,20858289,201453
OK,43,31,644,43,2014-08-02T07:20:00,7,20858738,201453
OK,44,31,644,44,2014-08-02T07:25:00,6,20859187,201453
OK,38,36,644,38,2014-08-02T07:30:00,1,20859636,201453
OK,53,25,644,53,2014-08-02T07:35:00,2,20860085,201453
OK,45,30,644,45,2014-08-02T07:40:00,6,20860534,201453
OK,45,30,644,45,2014-08-02T07:45:00,8,20860983,201453
OK,48,28,644,48,2014-08-02T07:50:00,8,20861432,201453
OK,35,39,644,35,2014-08-02T07:55:00,7,20861881,201453
OK,51,26,644,51,2014-08-02T08:00:00,8,20862330,201453
OK,46,29,644,46,2014-08-02T08:05:00,8,20862779,201453
OK,52,26,644,52,2014-08-02T08:10:00,7,20863228,201453
OK,53,25,644,53,2014-08-02T08:15:00,7,20863677,201453
OK,35,39,644,35,2014-08-02T08:20:00,5,20864126,201453
OK,58,23,644,58,2014-08-02T08:25:00,7,20864575,201453
OK,58,23,644,58,2014-08-02T08:30:00,8,20865024,201453
OK,49,27,644,49,2014-08-02T08:35:00,4,20865473,201453
OK,49,27,644,49,2014-08-02T08:40:00,12,20865922,201453
OK,60,22,644,60,2014-08-02T08:45:00,12,20866371,201453
OK,108,12,644,108,2014-08-02T08:50:00,14,20866820,201453
OK,108,12,644,108,2014-08-02T08:55:00,16,20867269,201453
OK,56,24,644,56,2014-08-02T09:00:00,12,20867718,201453
OK,40,34,644,40,2014-08-02T09:05:00,6,20868167,201453
OK,61,22,644,61,2014-08-02T09:10:00,5,20868616,201453
OK,45,30,644,45,2014-08-02T09:15:00,9,20869065,201453
OK,42,32,644,42,2014-08-02T09:20:00,4,20869514,201453
OK,55,24,644,55,2014-08-02T09:25:00,1,20869963,201453
OK,45,30,644,45,2014-08-02T09:30:00,4,20870412,201453
OK,54,25,644,54,2014-08-02T09:35:00,8,20870861,201453
OK,43,31,644,43,2014-08-02T09:40:00,2,20871310,201453
OK,55,24,644,55,2014-08-02T09:45:00,3,20871759,201453
OK,52,26,644,52,2014-08-02T09:50:00,5,20872208,201453
OK,49,27,644,49,2014-08-02T09:55:00,5,20872657,201453
OK,45,30,644,45,2014-08-02T10:00:00,6,20873106,201453
OK,46,29,644,46,2014-08-02T10:05:00,6,20873555,201453
OK,47,29,644,47,2014-08-02T10:10:00,5,20874004,201453
OK,41,33,644,41,2014-08-02T10:15:00,6,20874453,201453
OK,42,32,644,42,2014-08-02T10:20:00,5,20874902,201453
OK,44,31,644,44,2014-08-02T10:25:00,7,20875351,201453
OK,40,34,644,40,2014-08-02T10:30:00,8,20875800,201453
OK,52,26,644,52,2014-08-02T10:35:00,1,20876249,201453
OK,49,27,644,49,2014-08-02T10:40:00,2,20876698,201453
OK,60,22,644,60,2014-08-02T10:45:00,6,20877147,201453
OK,41,33,644,41,2014-08-02T10:50:00,11,20877596,201453
OK,48,28,644,48,2014-08-02T10:55:00,11,20878045,201453
OK,56,24,644,56,2014-08-02T11:00:00,7,20878494,201453
OK,57,24,644,57,2014-08-02T11:05:00,5,20878943,201453
OK,55,24,644,55,2014-08-02T11:10:00,4,20879392,201453
OK,34,40,644,34,2014-08-02T11:15:00,1,20879841,201453
OK,42,32,644,42,2014-08-02T11:20:00,4,20880290,201453
OK,52,26,644,52,2014-08-02T11:25:00,4,20880739,201453
OK,48,28,644,48,2014-08-02T11:30:00,4,20881188,201453
OK,42,32,644,42,2014-08-02T11:35:00,3,20881637,201453
OK,54,25,644,54,2014-08-02T11:40:00,5,20882086,201453
OK,54,25,644,54,2014-08-02T11:45:00,5,20882535,201453
OK,53,25,644,53,2014-08-02T11:50:00,2,20882984,201453
OK,49,27,644,49,2014-08-02T11:55:00,5,20883433,201453
OK,49,27,644,49,2014-08-02T12:00:00,4,20883882,201453
OK,41,33,644,41,2014-08-02T12:05:00,3,20884331,201453
OK,51,26,644,51,2014-08-02T12:10:00,7,20884780,201453
OK,50,27,644,50,2014-08-02T12:15:00,7,20885229,201453
OK,48,28,644,48,2014-08-02T12:20:00,7,20885678,201453
OK,33,41,644,33,2014-08-02T12:25:00,4,20886127,201453
OK,41,33,644,41,2014-08-02T12:30:00,4,20886576,201453
OK,46,29,644,46,2014-08-02T12:35:00,5,20887025,201453
OK,46,29,644,46,2014-08-02T12:40:00,8,20887474,201453
OK,55,24,644,55,2014-08-02T12:45:00,6,20887923,201453
OK,48,28,644,48,2014-08-02T12:50:00,6,20888372,201453
OK,57,24,644,57,2014-08-02T12:55:00,7,20888821,201453
OK,65,21,644,65,2014-08-02T13:00:00,11,20889270,201453
OK,59,23,644,59,2014-08-02T13:05:00,7,20889719,201453
OK,45,30,644,45,2014-08-02T13:10:00,3,20890168,201453
OK,53,25,644,53,2014-08-02T13:15:00,2,20890617,201453
OK,42,32,644,42,2014-08-02T13:20:00,8,20891066,201453
OK,36,38,644,36,2014-08-02T13:25:00,8,20891515,201453
OK,32,42,644,32,2014-08-02T13:30:00,4,20891964,201453
OK,36,38,644,36,2014-08-02T13:35:00,5,20892413,201453
OK,45,30,644,45,2014-08-02T13:40:00,2,20892862,201453
OK,37,37,644,37,2014-08-02T13:45:00,5,20893311,201453
OK,36,38,644,36,2014-08-02T13:50:00,6,20893760,201453
OK,32,42,644,32,2014-08-02T13:55:00,5,20894209,201453
OK,50,27,644,50,2014-08-02T14:00:00,2,20894658,201453
OK,51,26,644,51,2014-08-02T14:05:00,1,20895107,201453
OK,29,47,644,29,2014-08-02T14:10:00,3,20895556,201453
OK,41,33,644,41,2014-08-02T14:15:00,6,20896005,201453
OK,35,39,644,35,2014-08-02T14:20:00,12,20896454,201453
OK,41,33,644,41,2014-08-02T14:25:00,12,20896903,201453
OK,47,29,644,47,2014-08-02T14:30:00,3,20897352,201453
OK,21,65,644,21,2014-08-02T14:35:00,3,20897801,201453
OK,26,52,644,26,2014-08-02T14:40:00,5,20898250,201453
OK,44,31,644,44,2014-08-02T14:45:00,7,20898699,201453
OK,53,25,644,53,2014-08-02T14:50:00,9,20899148,201453
OK,30,45,644,30,2014-08-02T14:55:00,7,20899597,201453
OK,28,48,644,28,2014-08-02T15:00:00,4,20900046,201453
OK,51,26,644,51,2014-08-02T15:05:00,6,20900495,201453
OK,58,23,644,58,2014-08-02T15:10:00,5,20900944,201453
OK,67,20,644,67,2014-08-02T15:15:00,3,20901393,201453
OK,41,33,644,41,2014-08-02T15:20:00,7,20901842,201453
OK,42,32,644,42,2014-08-02T15:25:00,9,20902291,201453
OK,40,34,644,40,2014-08-02T15:30:00,4,20902740,201453
OK,38,36,644,38,2014-08-02T15:35:00,8,20903189,201453
OK,36,38,644,36,2014-08-02T15:40:00,9,20903638,201453
OK,36,38,644,36,2014-08-02T15:45:00,4,20904087,201453
OK,51,26,644,51,2014-08-02T15:50:00,3,20904536,201453
OK,38,36,644,38,2014-08-02T15:55:00,4,20904985,201453
OK,22,62,644,22,2014-08-02T16:00:00,2,20905434,201453
OK,22,62,644,22,2014-08-02T16:05:00,0,20905883,201453
OK,56,24,644,56,2014-08-02T16:10:00,2,20906332,201453
OK,49,27,644,49,2014-08-02T16:15:00,4,20906781,201453
OK,40,34,644,40,2014-08-02T16:20:00,5,20907230,201453
OK,38,36,644,38,2014-08-02T16:25:00,2,20907679,201453
OK,53,25,644,53,2014-08-02T16:30:00,1,20908128,201453
OK,48,28,644,48,2014-08-02T16:35:00,4,20908577,201453
OK,42,32,644,42,2014-08-02T16:40:00,3,20909026,201453
OK,36,38,644,36,2014-08-02T16:45:00,7,20909475,201453
OK,40,34,644,40,2014-08-02T16:50:00,4,20909924,201453
OK,36,38,644,36,2014-08-02T16:55:00,1,20910373,201453
OK,36,38,644,36,2014-08-02T17:00:00,3,20910822,201453
OK,38,36,644,38,2014-08-02T17:05:00,4,20911271,201453
OK,42,32,644,42,2014-08-02T17:10:00,4,20911720,201453
OK,27,50,644,27,2014-08-02T17:15:00,2,20912169,201453
OK,35,39,644,35,2014-08-02T17:20:00,3,20912618,201453
OK,29,47,644,29,2014-08-02T17:25:00,6,20913067,201453
OK,35,39,644,35,2014-08-02T17:30:00,3,20913516,201453
OK,49,27,644,49,2014-08-02T17:35:00,2,20913965,201453
OK,58,23,644,58,2014-08-02T17:40:00,2,20914414,201453
OK,52,26,644,52,2014-08-02T17:45:00,0,20914863,201453
OK,52,26,644,52,2014-08-02T17:50:00,7,20915312,201453
OK,52,26,644,52,2014-08-02T17:55:00,11,20915761,201453
OK,49,27,644,49,2014-08-02T18:00:00,9,20916210,201453
OK,50,27,644,50,2014-08-02T18:05:00,6,20916659,201453
OK,47,29,644,47,2014-08-02T18:10:00,4,20917108,201453
OK,44,31,644,44,2014-08-02T18:15:00,3,20917557,201453
OK,37,37,644,37,2014-08-02T18:20:00,4,20918006,201453
OK,38,36,644,38,2014-08-02T18:25:00,3,20918455,201453
OK,51,26,644,51,2014-08-02T18:30:00,3,20918904,201453
OK,51,26,644,51,2014-08-02T18:35:00,2,20919353,201453
OK,23,59,644,23,2014-08-02T18:40:00,1,20919802,201453
OK,39,35,644,39,2014-08-02T18:45:00,1,20920251,201453
OK,49,27,644,49,2014-08-02T18:50:00,1,20920700,201453
OK,32,42,644,32,2014-08-02T18:55:00,3,20921149,201453
OK,47,29,644,47,2014-08-02T19:00:00,4,20921598,201453
OK,48,28,644,48,2014-08-02T19:05:00,0,20922047,201453
OK,45,30,644,45,2014-08-02T19:10:00,1,20922496,201453
OK,45,30,644,45,2014-08-02T19:15:00,0,20922945,201453
OK,29,47,644,29,2014-08-02T19:20:00,2,20923394,201453
OK,29,47,644,29,2014-08-02T19:25:00,4,20923843,201453
OK,25,54,644,25,2014-08-02T19:30:00,2,20924292,201453
OK,27,50,644,27,2014-08-02T19:35:00,3,20924741,201453
OK,26,52,644,26,2014-08-02T19:40:00,2,20925190,201453
OK,39,35,644,39,2014-08-02T19:45:00,2,20925639,201453
OK,49,27,644,49,2014-08-02T19:50:00,3,20926088,201453